Date,TemperatureHighF,TemperatureAvgF,TemperatureLowF,DewpointHighF,DewpointAvgF,DewpointLowF,HumidityHigh,HumidityAvg,HumidityLow,PressureMaxIn,PressureMinIn,WindSpeedMaxMPH,WindSpeedAvgMPH,GustSpeedMaxMPH,PrecipitationSumIn
2013-2-1,23,16,11,21,14,8,94,90,82,30.19,29.70,9,4,28,0.08
2013-2-2,23,16,5,23,14,3,98,92,85,30.18,29.85,5,1,15,0.36
2013-2-3,30,25,22,28,24,22,98,95,91,29.85,29.70,4,0,13,0.29
2013-2-4,30,27,24,30,25,21,99,92,77,29.89,29.75,3,0,16,0.21
2013-2-5,35,32,30,35,31,29,100,98,92,29.85,29.72,7,1,21,0.16
2013-2-6,32,28,18,29,26,16,98,93,87,30.24,29.84,6,2,20,0.08
2013-2-7,34,26,15,31,24,13,98,92,89,30.25,30.01,7,2,20,0.00
2013-2-8,36,31,25,36,30,24,100,98,92,30.01,29.73,9,4,27,0.08
2013-2-9,32,24,18,27,22,15,96,90,79,30.29,29.99,9,2,26,0.02
2013-2-10,42,26,10,30,21,8,93,80,62,30.28,30.01,6,1,17,0.00
2013-2-11,57,43,34,50,39,29,100,86,58,30.01,29.66,7,3,26,0.00
2013-2-12,45,37,31,37,32,28,91,82,71,29.97,29.83,9,4,29,0.00
2013-2-13,40,33,27,34,30,25,99,91,73,29.88,29.60,4,0,11,0.17
2013-2-14,41,33,27,37,31,26,98,91,83,29.89,29.74,6,1,15,0.00
2013-2-15,44,36,32,37,33,30,98,91,75,29.97,29.86,6,1,19,0.01
2013-2-16,31,26,21,30,24,19,95,88,78,29.94,29.78,6,1,16,0.03
2013-2-17,24,19,14,21,16,10,95,90,82,30.11,29.76,9,3,26,0.42
2013-2-18,41,23,7,32,17,5,91,79,63,30.19,29.93,5,0,14,0.00
2013-2-19,41,36,25,40,33,23,98,90,71,29.93,29.59,8,4,30,0.18
2013-2-20,25,20,18,23,18,15,94,90,83,30.06,29.79,9,6,33,0.09
2013-2-21,25,20,16,22,17,14,94,91,87,30.24,30.03,8,3,20,0.07
2013-2-22,28,25,18,28,24,16,99,94,85,30.19,30.01,9,2,20,0.03
2013-2-23,48,36,28,45,35,28,100,97,87,30.01,29.78,2,0,10,0.00
2013-2-24,35,30,26,35,29,24,99,94,90,30.04,29.78,7,3,21,0.04
2013-2-25,40,31,24,32,27,23,96,84,68,30.14,30.03,4,0,14,0.00
2013-2-26,35,33,31,35,30,26,100,89,78,30.06,29.59,9,3,25,0.22
2013-2-27,40,36,33,38,35,33,100,99,94,29.65,29.53,7,1,18,0.15
2013-2-28,34,32,31,34,32,30,99,96,93,29.70,29.56,7,2,19,0.11